YO8KGT-13 Weather Reports


time (UTC)temp
C
wind
direction
speed
KPH
gust
KPH
rain 1hr
cm
rain 24hr
cm
rain mn
cm
humidity
%
barometer
mb
20260503201421 10 225 4.8 6.4 0.00 0.00 0.00 53 948.0
20260503200936 10 225 3.2 4.8 0.00 0.00 0.00 53 948.0
20260503200422 10 225 4.8 4.8 0.00 0.00 0.00 52 948.0
20260503195422 11 225 0.0 0.0 0.00 0.00 0.00 51 948.0
20260503194923 11 225 0.0 0.0 0.00 0.00 0.00 51 948.0
20260503194422 11 225 0.0 0.0 0.00 0.00 0.00 51 948.0
20260503193420 11 225 0.0 1.6 0.00 0.00 0.00 51 948.0
20260503191921 11 225 0.0 0.0 0.00 0.00 0.00 50 948.0
20260503190940 11 225 0.0 3.2 0.00 0.00 0.00 49 948.0
20260503190443 11 225 0.0 3.2 0.00 0.00 0.00 49 948.0
20260503185421 12 225 0.0 3.2 0.00 0.00 0.00 48 948.0
20260503183929 12 225 4.8 6.4 0.00 0.00 0.00 48 948.0
20260503181420 13 202 0.0 4.8 0.00 0.00 0.00 46 948.0
20260503180919 13 202 3.2 4.8 0.00 0.00 0.00 46 948.0
20260503180425 13 202 4.8 6.4 0.00 0.00 0.00 46 948.0
20260503175423 13 225 3.2 6.4 0.00 0.00 0.00 45 948.0
20260503174919 13 248 3.2 4.8 0.00 0.00 0.00 45 948.0
20260503173932 13 270 0.0 6.4 0.00 0.00 0.00 44 948.0
20260503173432 13 270 6.4 6.4 0.00 0.00 0.00 44 948.0
20260503172920 14 248 6.4 6.4 0.00 0.00 0.00 43 948.0
20260503172426 14 248 3.2 4.8 0.00 0.00 0.00 43 948.0
20260503170924 15 0 0.0 3.2 0.00 0.00 0.00 41 948.0
20260503170420 15 0 0.0 3.2 0.00 0.00 0.00 41 948.0
20260503150922 18 0 0.0 0.0 0.00 0.00 0.00 36 949.0
20260503150432 18 0 0.0 0.0 0.00 0.00 0.00 36 949.0
20260503130920 21 0 0.0 4.8 0.00 0.00 0.00 32 950.0
20260503130421 21 0 0.0 4.8 0.00 0.00 0.00 32 950.0
20260503110434 21 22 1.6 4.8 0.00 0.00 0.00 30 951.0
20260503090419 17 0 0.0 4.8 0.00 0.00 0.00 36 953.0
20260503081420 16 22 0.0 6.4 0.00 0.00 0.00 40 954.0
20260503080421 16 22 0.0 6.4 0.00 0.00 0.00 40 954.0
20260503072940 15 0 0.0 1.6 0.00 0.00 0.00 48 954.0
20260503072439 15 0 0.0 1.6 0.00 0.00 0.00 48 954.0
20260503071922 15 22 0.0 3.2 0.00 0.00 0.00 51 954.0
20260503071419 15 22 0.0 3.2 0.00 0.00 0.00 52 954.0
20260503070921 15 22 0.0 1.6 0.00 0.00 0.00 54 954.0
20260503070422 14 22 0.0 1.6 0.00 0.00 0.00 56 954.0
20260503054920 8 45 0.0 0.0 0.00 0.00 0.00 69 954.0
20260503054420 7 45 0.0 1.6 0.00 0.00 0.00 69 954.0
20260503053920 7 45 0.0 1.6 0.00 0.00 0.00 70 954.0
20260503052926 7 45 0.0 0.0 0.00 0.00 0.00 71 954.0
20260503051920 6 45 0.0 0.0 0.00 0.00 0.00 72 954.0
20260503045420 5 45 0.0 0.0 0.00 0.00 0.00 74 954.0
20260503044922 5 45 0.0 0.0 0.00 0.00 0.00 74 954.0
20260503044429 5 45 0.0 0.0 0.00 0.00 0.00 74 954.0
20260503043918 5 45 0.0 0.0 0.00 0.00 0.00 75 954.0
20260503042434 4 45 0.0 0.0 0.00 0.00 0.00 75 954.0
20260503040920 4 45 0.0 0.0 0.00 0.00 0.00 77 953.0
20260503040418 4 45 0.0 0.0 0.00 0.00 0.00 77 953.0
20260503035922 3 45 0.0 0.0 0.00 0.00 0.00 77 953.0
20260503035419 3 45 0.0 0.0 0.00 0.00 0.00 77 953.0
20260503034922 3 45 0.0 0.0 0.00 0.00 0.00 78 953.0
20260503034432 2 45 0.0 0.0 0.00 0.00 0.00 78 953.0
20260503033931 2 45 0.0 0.0 0.00 0.00 0.00 78 953.0
20260503032419 1 45 0.0 0.0 0.00 0.00 0.00 78 953.0
20260503031420 1 45 0.0 0.0 0.00 0.00 0.00 78 953.0
20260503030923 1 45 0.0 0.0 0.00 0.00 0.00 78 953.0
20260503025433 1 45 0.0 0.0 0.00 0.00 0.00 77 953.0
20260503024418 1 45 0.0 0.0 0.00 0.00 0.00 77 953.0
20260503023444 1 45 0.0 0.0 0.00 0.00 0.00 77 953.0
20260503022918 1 45 0.0 0.0 0.00 0.00 0.00 77 953.0
20260503022422 1 45 0.0 0.0 0.00 0.00 0.00 77 953.0
20260503021919 1 45 0.0 0.0 0.00 0.00 0.00 76 953.0
20260503020931 1 45 0.0 0.0 0.00 0.00 0.00 76 953.0
20260503020421 1 45 0.0 0.0 0.00 0.00 0.00 76 953.0
20260503015920 1 45 0.0 0.0 0.00 0.00 0.00 75 953.0
20260503014939 1 45 0.0 0.0 0.00 0.00 0.00 75 953.0
20260503013919 1 45 0.0 0.0 0.00 0.00 0.00 75 953.0
20260503013418 1 45 0.0 0.0 0.00 0.00 0.00 74 953.0
20260503012927 2 45 0.0 0.0 0.00 0.00 0.00 74 953.0
20260503012430 2 45 0.0 0.0 0.00 0.00 0.00 74 953.0
20260503010939 2 45 0.0 0.0 0.00 0.00 0.00 73 953.0
20260503010419 2 45 0.0 0.0 0.00 0.00 0.00 73 953.0
20260503005920 2 45 0.0 0.0 0.00 0.00 0.00 73 953.0
20260503005418 2 45 0.0 0.0 0.00 0.00 0.00 73 953.0
20260503004919 2 45 0.0 0.0 0.00 0.00 0.00 73 953.0
20260503003929 2 45 0.0 0.0 0.00 0.00 0.00 73 953.0
20260503003422 2 45 0.0 0.0 0.00 0.00 0.00 73 953.0
20260503002422 2 45 0.0 0.0 0.00 0.00 0.00 72 953.0
20260503001919 2 45 0.0 0.0 0.00 0.00 0.00 72 953.0
20260503001420 2 45 0.0 0.0 0.00 0.00 0.00 72 953.0
20260503000921 2 45 0.0 0.0 0.00 0.00 0.00 72 953.0
20260503000425 2 45 0.0 0.0 0.00 0.00 0.00 71 953.0
20260502235929 2 45 0.0 0.0 0.00 0.00 0.00 71 953.0
20260502235436 3 45 0.0 0.0 0.00 0.00 0.00 71 953.0
20260502234919 3 45 0.0 0.0 0.00 0.00 0.00 71 953.0
20260502233919 3 45 0.0 0.0 0.00 0.00 0.00 71 953.0
20260502233418 3 45 0.0 0.0 0.00 0.00 0.00 71 953.0
20260502232923 3 45 0.0 0.0 0.00 0.00 0.00 71 953.0
20260502232418 3 45 0.0 0.0 0.00 0.00 0.00 70 953.0
20260502230935 3 45 0.0 0.0 0.00 0.00 0.00 70 953.0
20260502230420 3 45 0.0 0.0 0.00 0.00 0.00 69 953.0
20260502225919 3 45 0.0 0.0 0.00 0.00 0.00 69 953.0
20260502224420 3 45 0.0 0.0 0.00 0.00 0.00 69 953.0
20260502222930 3 45 0.0 0.0 0.00 0.00 0.00 68 954.0
20260502222427 3 45 0.0 0.0 0.00 0.00 0.00 68 954.0
20260502221418 3 45 0.0 0.0 0.00 0.00 0.00 67 954.0
20260502220942 3 45 0.0 0.0 0.00 0.00 0.00 67 954.0
20260502220439 3 45 0.0 0.0 0.00 0.00 0.00 66 954.0
20260502215922 3 45 0.0 0.0 0.00 0.00 0.00 66 954.0
20260502214918 4 45 0.0 0.0 0.00 0.00 0.00 65 954.0
20260502214426 4 45 0.0 0.0 0.00 0.00 0.00 65 954.0
20260502212920 4 45 0.0 0.0 0.00 0.00 0.00 64 954.0
20260502212437 4 45 0.0 0.0 0.00 0.00 0.00 64 954.0
20260502211940 5 45 0.0 0.0 0.00 0.00 0.00 64 954.0
20260502211419 5 45 0.0 0.0 0.00 0.00 0.00 64 954.0
20260502210923 5 45 0.0 0.0 0.00 0.00 0.00 64 954.0
20260502205926 5 45 0.0 0.0 0.00 0.00 0.00 63 954.0
20260502205434 5 45 0.0 0.0 0.00 0.00 0.00 63 954.0
20260502204424 5 45 0.0 0.0 0.00 0.00 0.00 62 954.0
20260502203939 5 45 0.0 0.0 0.00 0.00 0.00 62 954.0
20260502203443 5 45 0.0 0.0 0.00 0.00 0.00 61 954.0
20260502202919 6 45 0.0 0.0 0.00 0.00 0.00 61 954.0
20260502202419 6 45 0.0 0.0 0.00 0.00 0.00 61 954.0
20260502201918 6 45 0.0 0.0 0.00 0.00 0.00 61 954.0